www.pogodaiklimat.ru

Погода и климат >> Архив погоды >> Мексика >> Piedras Negras


ПОГОДА в Piedras Negras

  • Прогноз погоды в Piedras Negras
  • Монитор погоды в Piedras Negras
  • Климат города

АРХИВ ПОГОДЫ в Piedras Negras

Время (UTC), дата Ветер
(напр.,м/с)
 
Видим.   Явления Облачность Т
(С)
Тd
(С)
f
(%)
Тe
(С)
Тes
(С)
Комфортность P
(гПа)
Po
(гПа)
Тmin
(С)
Tmax
(С)
R
(мм)
R24
(мм)
S
(см)
18 10.07 ЮВ 2 5000 м ясно +33.0 +19.3 44 +38 +60 опасность
солнечного
удара
1022.8 994.3 +23.2 +34.0
21 10.07 ЮВ 3 5000 м ясно +36.4 +16.9 32 +39 +53 опасность
солнечного
удара
1019.3 991.1
00 11.07 ЮВ 3 5000 м 4/4 300 м
[Cu med, cong]
+36.6 +16.4 30 +39 +40 очень
душно
1016.1 988.3 +23.2 +38.2
03 11.07 В 1 1000 м 4/4 480 м
[Cu med, cong]
+32.0 +18.1 44 +37 +37 очень
душно
1017.4 989.7
06 11.07 ЮВ 1 1000 м ясно +29.4 +21.3 62 +37 +37 очень
душно
1018.1 990.4 +23.2 +38.2
12 11.07 В 1 2000 м ясно +25.4 +22.9 86 +34 +34 очень
душно
1018.7 990.6 +24.6 +38.2
15 11.07 Ю 2 4000 м ясно +29.4 +22.5 66 +38 +48 очень
душно
1019.5 991.2
18 11.07 Ю 2 5000 м 4/4 540 м
[Cu med, cong]
+35.4 +19.3 39 +41 +53 опасность
перегрева
1019.5 991.3 +24.6 +36.2
21 11.07 В 3 5000 м 3/3 540 м
[Cu med, cong]
+37.4 +15.6 28 +39 +49 очень
душно
1014.8 986.9
00 12.07 ЮВ 3 5000 м 3/3 300 м
[Cu med, cong]
+37.6 +14.2 25 +38 +40 очень
жарко
1013.0 985.4 +24.6 +39.4
03 12.07 ЮВ 1 1000 м ясно +32.4 +13.3 31 +33 +33 жарко 1014.2 986.8
06 12.07 ЮВ 1 1000 м ясно +30.0 +18.4 50 +35 +35 очень
душно
1016.8 989.2 +24.6 +39.4
12 12.07 В 1 2000 м ясно +26.0 +21.8 78 +33 +33 очень
душно
1016.8 988.8 +25.4 +39.4
15 12.07 ЮВ 1 4000 м ясно +29.4 +21.9 64 +38 +49 очень
душно
1017.9 989.7
18 12.07 ЮВ 2 5000 м ясно +34.2 +21.5 48 +42 +64 опасность
перегрева
1018.0 989.8 +25.6 +35.0
21 12.07 ЮВ 1 5000 м 3/3 480 м
[Cu med, cong]
+38.6 +16.5 27 +41 +54 опасность
перегрева
1016.4 988.5
00 13.07 ЮВ 1 5000 м 3/3 300 м
[Cu med, cong]
+39.4 +14.0 22 +40 +42 очень
душно
1014.2 986.6 +25.4 +41.0
03 13.07 В 1 1000 м ясно +32.8 +14.3 33 +34 +34 очень
жарко
1014.6 987.2
06 13.07 ЮВ 1 1000 м ясно +30.2 +20.6 56 +37 +37 очень
душно
1018.2 990.6 +25.4 +41.0
12 13.07 ЮВ 2 2000 м ясно +26.0 +20.3 71 +32 +32 очень
душно
1018.0 989.9 +25.0 +41.0
15 13.07 ЮВ 2 4000 м ясно +29.0 +22.1 66 +37 +47 очень
душно
1019.0 990.8
18 13.07 В 2 5000 м ясно +33.8 +22.0 50 +42 +64 опасность
перегрева
1019.5 991.3 +25.0 +34.0
21 13.07 В 2 5000 м ясно +38.6 +14.9 25 +40 +56 опасность
солнечного
удара
1017.3 989.4
03 14.07 ЮВ 2 1000 м ясно +33.6 +17.7 39 +37 +37 очень
душно
1015.4 987.9
06 14.07 ЮВ 1 1000 м ясно +30.4 +22.1 61 +39 +39 очень
душно
1017.7 990.2 +25.0 +40.0
12 14.07 ЮВ 1 2000 м ясно +25.6 +18.3 64 +30 +30 душно 1017.9 989.9 +24.6 +40.0
18 14.07 В 2 5000 м ясно +34.0 +21.6 48 +42 +63 опасность
перегрева
1019.3 991.2 +24.6 +35.0
21 14.07 ЮВ 1 5000 м 4/4 500 м
[Cu hum]
+38.6 +18.1 30 +42 +53 опасность
перегрева
1016.0 988.1
00 15.07 ЮВ 1 5000 м 4/4 300 м
[Cu hum]
+39.8 +15.0 23 +41 +42 опасность
перегрева
1013.3 985.7 +24.6 +40.6
03 15.07 ЮВ 3 1000 м ясно +34.0 +17.1 37 +37 +37 очень
душно
1015.4 987.9
06 15.07 ЮВ 3 1000 м ясно +31.0 +20.3 53 +38 +38 очень
душно
1018.1 990.6 +24.6 +40.6
12 15.07 ЮВ 1 5000 м ясно +27.2 +21.6 71 +35 +35 очень
душно
1017.6 989.6 +26.0 +40.6
15 15.07 Ю 1 5000 м 6/6 540 м
[Cu med, cong]
+29.4 +22.5 66 +38 +43 очень
душно
1017.7 989.6
18 15.07 В 2 5000 м ясно +34.8 +20.6 44 +42 +63 опасность
перегрева
1017.5 989.4 +26.0 +36.2
21 15.07 ЮВ 3 5000 м 8/8 540 м
[Cu med, cong]
+39.0 +19.4 32 +44 +46 опасность
перегрева
1014.7 986.9
00 16.07 ЮВ 4 5000 м 8/8 300 м
[Cu med, cong]
+38.4 +15.9 27 +40 +41 очень
душно
1012.3 984.8 +26.0 +41.0
12 16.07 ЮВ 2 5000 м ясно +26.4 +21.0 72 +33 +33 очень
душно
1017.7 989.6 +25.2 +41.0
15 16.07 В 2 5000 м 6/6 400 м
[Sc diur, vesp]
+27.8 +20.4 64 +34 +38 очень
душно
1019.0 990.8
18 16.07 В 3 5000 м 5/5 400 м
[Sc diur, vesp]
+33.0 +20.4 48 +40 +49 очень
душно
1019.0 990.8 +25.2 +34.4
21 16.07 ЮВ 1 5000 м 3/3 400 м
[Sc diur, vesp]
+38.0 +18.4 32 +42 +55 опасность
перегрева
1014.6 986.6
00 17.07 ЮВ 2 5000 м ясно +38.4 +17.1 29 +41 +43 опасность
перегрева
1011.8 984.2 +25.2 +39.8
03 17.07 ЮВ 1 1000 м ясно +33.6 +13.4 30 +35 +35 душно 1014.5 987.0
06 17.07 ЮВ 1 1000 м ясно +31.4 +15.5 38 +34 +34 душно 1016.8 989.3 +25.2 +39.8
12 17.07 В 1 2000 м ясно +26.4 +19.5 66 +32 +32 очень
душно
1017.9 990.0 +25.8 +39.8

 

Местоположение метеостанции Piedras Negras (Мексика): широта 28.70 долгота -100.50 высота над уровнем моря 250 м.

В архиве по умолчанию представлена погода в Piedras Negras за последнюю неделю. Архивные данные за месяц целиком и за предыдущие месяцы, начиная с января 2011 года, Вы можете получить, выбрав интересующий диапазон дат из раскрывающегося списка и нажав кнопку "Ввод!".


*Определитесь, кто Вы:
робот инопланетянин человек

Внимание! Время в таблицах - всемирное. Для получения местного времени необходимо прибавить поправку, которая в Piedras Negras равна -7 ч.

Смотрите также архив погоды в соседних городах и на ближайших метеорологических станциях:

Погода в Monclova (Мексика) (221 км)
Погода в Monterrey (Мексика) (331 км)
Погода в Saltillo (Мексика) (374 км)
Погода в Torreon (Мексика) (455 км)
Погода в Chihuahua University (Мексика) (537 км)
Погода в Hidalgo del Parral (Мексика) (539 км)
Погода в Chihuahua (Мексика) (544 км)
Погода в Ciudad Victoria (Мексика) (569 км)
Погода в Soto La Marina (Мексика) (594 км)
Погода в Tepehuanes (Мексика) (638 км)

Пояснения к столбцам:

Ветер - указаны скорость ветра в м/с - средняя за 10 мин, порывы в срок и между сроками (в фигурных скобках) и направление, откуда дует ветер: С - северный, СВ - северо-восточный, В - восточный, ЮВ - юго-восточный, Ю - южный, ЮЗ - юго-западный, З - западный, СЗ - северо-западный.
Видимость - горизонтальная дальность видимости в метрах или километрах. При видимости от 1 до 10 км при отсутствии осадков обычно наблюдается дымка, при ухудшении видимости до 1 км и менее - туман. В сухую погоду видимость может ухудшаться дымом, пылью или мглою.
Явления - указаны атмосферные явления, наблюдавшиеся в срок или в последний час перед сроком; фигурными скобками обозначены явления, наблюдавшиеся между сроками (за 1-3 часа до срока); квадратными скобками обозначены град или гололедные отложения с указанием их диаметра в мм.
Облачность - указаны через наклонную черту общая и нижняя облачность в баллах и высота нижней границы облаков в метрах; квадратными скобками обозначены формы облаков: Ci - перистые, Cs - перисто-слоистые, Cc - перисто-кучевые, Ac - высококучевые, As - высокослоистые, Sc - слоисто-кучевые, Ns - слоисто-дождевые, Cu - кучевые, Cb - кучево-дождевые. Подробнее классификацию облаков см. в Атласе облаков (PDF).
T - Температура воздуха - температура, измеренная на высоте 2 м над землей.
Td - Температура точки росы - температура, при понижении до которой содержащийся в воздухе водяной пар достигнет насыщения.
f - Относительная влажность воздуха - влажноcть воздуха, измеренная на высоте 2 м над землей.
Te - Эффективная температура - температура, которую ощущает одетый по сезону человек в тени. Характеристика душности погоды. При расчете учитывается влияние влажности воздуха и скорости ветра на теплоощущения человека.
Tes - Эффективная температура на солнце - температура, которую ощущает человек, с поправкой на солнечный нагрев. Характеристика знойности погоды. Зависит от высоты солнца над горизонтом, облачности и скорости ветра. Ночью, в пасмурную погоду, а также при ветре 12 м/с и более поправка равна нулю.
P - Атмосферное давление - приведенное к уровню моря атмосферное давление.
Po - Атмосферное давление - измеренное на уровне метеостанции атмосферное давление.
Tmin - Минимальная температура - минимум температуры воздуха на высоте 2 м над землей.
Tmax - Максимальная температура - максимум температуры воздуха на высоте 2 м над землей.
R - Количество осадков - Количество выпавших осадков за период времени, мм. При наведении курсора мыши на число - период времени, за который выпало указанное количество осадков.
R24 - Количество осадков - Количество выпавших осадков за 24 часа, мм.
S - Снежный покров - Высота снежного покрова, см. При наведении курсора мыши на число - состояние снежного покрова и степень покрытия местности в баллах.